Location: Unspecified
(49.9820°N, 20.4363°E)
Time: 01:49:26
(UTC+02:00)

ISS - Pass Details

Date: 12 October 2018
Orbit: 402 x 408 km, 51.6° (Epoch: 22 October)

Event Time Altitude Azimuth Distance (km) Brightness Sun altitude
Rises 19:12:16 0° 279° (W) 2,338 2.0 -13.4°
Reaches altitude 10° 19:15:41 10° 241° (WSW) 1,471 -0.1 -14.0°
Maximum altitude 19:16:37 11° 225° (SW) 1,414 -0.5 -14.1°
Drops below altitude 10° 19:17:34 10° 208° (SSW) 1,468 -0.7 -14.3°
Sets 19:20:58 0° 170° (S) 2,321 -0.1 -14.8°
